Voltar ao catálogo

FENGYUN 1C DEB

AtivoSSO
NORAD 30231·DEBRIS·🇨🇳 China

Lançado May 10, 1999 de Taiyuan Satellite Launch Center

Loading…

Próximas Passagens (próximas 24 horas)

TLE

AtualizadoSource: Space-Track

Época: Sep 13, 2026, 15:40 UTC

1 30231U 99025WQ  26256.65302791  .00000654  00000-0  35210-3 0  9997
2 30231  98.7725 300.9670 0126766 329.0540 154.5939 14.12224701  8980

Acompanhe FENGYUN 1C DEB em tempo real com AllMySat

Download on the App Store